Weather History for KBFM - July, 2013

Change the Weather History Date:

Thursday, July 25, 2013

  Actual Average Record
Temperature  
Mean Temperature 82 °F -  
Max Temperature 91 °F 87 °F 93 °F (2000)
Min Temperature 73 °F 72 °F 68 °F (2000)
Cooling Degree Days 17    
Growing Degree Days 32 (Base 50)    
Moisture  
Dew Point 73 °F    
Average Humidity 78    
Maximum Humidity 97    
Minimum Humidity 53    
Precipitation  
Precipitation 0.01 in - - ()
Sea Level Pressure  
Sea Level Pressure 29.97 in    
Wind  
Wind Speed 5 mph (WNW)    
Max Wind Speed 12 mph    
Max Gust Speed -    
Visibility 10 miles    
Events      
Averages and records for this station are not official NWS values.
T = Trace of Precipitation, MM = Missing Value Source: NWS Daily Summary

Daily Weather History Graph

Daily Weather History Graph

Search for Another Location

Airport or City:

Trip Planner

Search our weather history database for the weather conditions in past years. The results will help you decide how hot, cold, wet, or windy it might be!

Date:

Astronomy

Jul. 25, 2013 Rise Set
Actual Time 6:06 AM CDT 7:51 PM CDT
Civil Twilight 5:39 AM CDT 8:17 PM CDT
Nautical Twilight 5:07 AM CDT 8:49 PM CDT
Astronomical Twilight 4:33 AM CDT 9:23 PM CDT
Moon 9:52 PM CDT (7/25) 9:16 AM CDT (7/25)
Length of Visible Light 14h 38m
Length of Day
13h 45m
Waning Gibbous, 88% of the Moon is Illuminated
Jul 25
Waning Gibbous
Jul 29
Last Quarter
Aug 6
New
Aug 14
First Quarter
Aug 20
Full

Hourly Weather History & Observations

Time (CDT) Temp. Heat Index Dew Point Humidity Pressure Visibility Wind Dir Wind Speed Gust Speed Precip Events Conditions
12:53 AM 73.9 °F - 73.0 °F 97% 29.92 in 10.0 mi Calm Calm - N/A   Overcast
1:53 AM 73.9 °F - 73.0 °F 97% 29.90 in 10.0 mi WSW 3.5 mph - 0.01 in   Mostly Cloudy
2:53 AM 73.9 °F - 71.1 °F 91% 29.89 in 10.0 mi NNW 6.9 mph - N/A   Clear
3:15 AM 73.4 °F - 71.6 °F 94% 29.91 in 10.0 mi SW 3.5 mph - N/A   Scattered Clouds
3:53 AM 73.0 °F - 72.0 °F 96% 29.91 in 10.0 mi South 4.6 mph - N/A   Scattered Clouds
4:53 AM 73.0 °F - 72.0 °F 96% 29.92 in 10.0 mi WSW 4.6 mph - N/A   Overcast
5:53 AM 73.0 °F - 72.0 °F 96% 29.94 in 10.0 mi WNW 4.6 mph - N/A   Mostly Cloudy
6:53 AM 73.9 °F - 72.0 °F 93% 29.96 in 10.0 mi WNW 3.5 mph - N/A   Mostly Cloudy
7:51 AM 75.2 °F - 73.4 °F 94% 29.97 in 10.0 mi NNW 6.9 mph - N/A   Mostly Cloudy
7:53 AM 75.9 °F - 73.0 °F 91% 29.97 in 10.0 mi NW 6.9 mph - N/A   Mostly Cloudy
8:53 AM 80.1 °F 84.2 °F 73.0 °F 79% 29.98 in 10.0 mi NNW 8.1 mph - N/A   Scattered Clouds
9:53 AM 82.9 °F 88.8 °F 73.0 °F 72% 29.99 in 10.0 mi North 9.2 mph - N/A   Scattered Clouds
10:29 AM 82.4 °F 88.2 °F 73.4 °F 74% 30.00 in 10.0 mi NNW 10.4 mph - N/A   Mostly Cloudy
10:53 AM 84.0 °F 90.2 °F 73.0 °F 69% 30.01 in 10.0 mi NNW 6.9 mph - N/A   Mostly Cloudy
11:53 AM 86.0 °F 93.0 °F 73.0 °F 65% 30.01 in 10.0 mi Variable 5.8 mph - N/A   Mostly Cloudy
12:53 PM 89.1 °F 98.0 °F 73.9 °F 61% 30.01 in 10.0 mi NW 9.2 mph - N/A   Mostly Cloudy
1:53 PM 90.0 °F 97.9 °F 73.0 °F 57% 30.01 in 10.0 mi NW 9.2 mph - N/A   Mostly Cloudy
2:53 PM 91.0 °F 98.2 °F 72.0 °F 53% 29.99 in 10.0 mi WNW 5.8 mph - N/A   Mostly Cloudy
3:53 PM 89.1 °F 99.1 °F 75.0 °F 63% 29.98 in 10.0 mi Variable 4.6 mph - N/A   Mostly Cloudy
4:53 PM 91.0 °F 99.3 °F 73.0 °F 55% 29.98 in 10.0 mi NW 11.5 mph - N/A   Partly Cloudy
5:53 PM 90.0 °F 96.9 °F 72.0 °F 55% 29.98 in 10.0 mi NW 9.2 mph - N/A   Scattered Clouds
6:53 PM 88.0 °F 94.7 °F 72.0 °F 59% 29.99 in 10.0 mi WNW 8.1 mph - N/A   Partly Cloudy
7:53 PM 84.0 °F 90.2 °F 73.0 °F 69% 29.99 in 10.0 mi West 4.6 mph - N/A   Partly Cloudy
8:53 PM 82.9 °F 88.8 °F 73.0 °F 72% 30.00 in 10.0 mi West 4.6 mph - N/A   Clear
9:53 PM 80.1 °F 84.5 °F 73.9 °F 81% 30.01 in 10.0 mi West 3.5 mph - N/A   Clear
10:53 PM 78.1 °F - 73.0 °F 84% 30.02 in 10.0 mi WNW 3.5 mph - N/A   Clear
11:53 PM 78.1 °F - 72.0 °F 81% 30.03 in 10.0 mi NW 3.5 mph - N/A   Clear